Location: ????????
(55.0559°N, 39.1270°E)
Time: 01:10:02
(UTC+00:00)

COSMOS 2428 - Pass Details

Date: 15 November 2025
Orbit: 847 x 852 km, 70.9° (Epoch: 12 December)

Event Time Altitude Azimuth Distance (km) Brightness Sun altitude
Exits shadow 01:39:04 66° 349° (N) 925 2.8 -27.8°
Drops below altitude 10° 01:44:11 10° 32° (NNE) 2,483 5.6 -27.0°
Sets 01:46:40 0° 34° (NE) 3,422 6.4 -26.7°
